Regional Weather Roundup
Issued by NWS Green Bay, WI

Home | Current Version | Previous Version | Text Only | Print | Product List | Glossary On
Versions: 1 2 3 4 5 6 7 8 9 10 11 12 13 14 15 16 17 18 19 20 21 22 23 24 25 26 27 28 29 30 31 32 33 34 35 36 37 38 39 40 41 42 43 44 45 46 47 48 49 50
000
ASUS43 KGRB 230811
RWRGRB

NORTH-CENTRAL AND NORTHEAST WISCONSIN REGIONAL WEATHER ROUNDUP
NATIONAL WEATHER SERVICE GREEN BAY WI
300 AM CDT SAT MAY 23 2015

WIZ005-009-010>012-018-019-230900-
NORTH CENTRAL WISCONSIN

CITY           SKY/WX    TMP DP  RH WIND       PRES   REMARKS
IRONWOOD       CLEAR     54  34  47 SW7       30.18R
MANITOWISH WTR CLEAR     37  36  94 CALM      30.22S
ARBOR VITAE    CLEAR     42  36  80 CALM      30.23S
EAGLE RIVER    CLEAR     37  32  84 CALM      30.23S
LAND O LAKES   CLEAR     32  31  97 CALM      30.24R
RHINELANDER    CLEAR     36  33  89 CALM      30.24S
PHILLIPS       CLEAR     38  36  92 CALM      30.23S
ANTIGO         CLEAR     41  34  76 CALM      30.27R
TOMAHAWK       CLEAR     34  32  94 CALM      30.25S
MERRILL        CLEAR     35  34  96 CALM      30.27R
$$

WIZ013-073-230900-
NORTHEAST WISCONSIN

CITY           SKY/WX    TMP DP  RH WIND       PRES   REMARKS
IRON MOUNTAIN  CLEAR     35  29  78 CALM      30.23S
MARINETTE      CLEAR     45  30  57 SW5       30.26S
OCONTO         CLEAR     36  34  95 CALM      30.27R
$$

WIZ017-030-035>037-045-230900-
CENTRAL WISCONSIN

CITY           SKY/WX    TMP DP  RH WIND       PRES   REMARKS
MEDFORD        CLEAR     39  37  90 CALM      30.25R
WAUSAU         CLEAR     45  38  76 SE6       30.25R
MOSINEE        CLEAR     43  39  87 CALM      30.27R
MARSHFIELD     CLEAR     49  37  63 S3        30.25R
WISC RAPIDS    CLEAR     48  35  60 CALM      30.27R
STEVENS POINT  CLEAR     45  37  72 CALM      30.27R
WAUPACA        CLEAR     45  35  69 CALM      30.27S
SHAWANO        CLEAR     44  37  76 CALM      30.27S
CLINTONVILLE   CLEAR     41  34  75 CALM      30.27R
$$

WIZ038-039-048-051-230900-
FOX VALLEY

CITY           SKY/WX    TMP DP  RH WIND       PRES   REMARKS
NWS GREEN BAY  CLEAR     42  34  73 CALM      30.27S
APPLETON       CLEAR     45  28  53 SW5       30.28R
OSHKOSH        PTCLDY    48  30  49 SW6       30.27R
FOND DU LAC    PTCLDY    44  29  55 CALM      30.28R
$$

WIZ022-050-052-230900-
EAST CENTRAL WISCONSIN

CITY           SKY/WX    TMP DP  RH WIND       PRES   REMARKS
STURGEON BAY   CLEAR     46  25  42 S6        30.30R
MANITOWOC      PTCLDY    46  28  49 CALM      30.28S
SHEBOYGAN      PTCLDY    42  29  59 SW6       30.28S
$$

LMZ563-521-522-541>543-230900-
LAKESHORE

STATION/POSITION TIME  TEMP    WIND        PRES    VSBY  WAVE
                       AIR SEA DIR/SP/G                  HT/PER
                 (UTC) (F)     (DEG/KT/KT) (MB)    (MI)  (FT/S)
SHEBOYGAN LKSHOR 0800   52     230/  8/  9 1026.0R
KEWAUNEE LKSHORE 0700   45      CALM  /  2 1024.3R
NORTHPORT PIER   0700   47     200/  4/  8 1024.4F
N MID LAKE BUOY  0750   40 36  200/  6/  8 1025.5S         0
SISTER BAY LKSHO 0717   43        CALM       N/A
CHAMBERS ISLAND  0700   49     170/  6/ 11 1024.7S
MENOMINEE LKSHOR 0700   52     180/  9/ 12 1025.1S
$$


USA.gov is the U.S. government's official web portal to all federal, state and local government web resources and services.